TimeCST,TemperatureF,Dew PointF,Humidity,Sea Level PressureIn,VisibilityMPH,Wind Direction,Wind SpeedMPH,Gust SpeedMPH,PrecipitationIn,Events,Conditions,WindDirDegrees,DateUTC
12:00 AM,68,68,99,29.86,9,Calm,Calm,,,Fog,Light Fog,,2013-11-08 06:00:00
12:00 AM,68.0,68.0,100,30.02,6.2,Calm,Calm,-,N/A,,Scattered Clouds,0,2013-11-08 06:00:00
1:00 AM,-9999,-9999,N/A,29.99,6.2,East,3.5,-,N/A,,Scattered Clouds,80,2013-11-08 07:00:00
2:00 AM,66.2,66.2,100,29.97,6.2,Calm,Calm,-,N/A,,Scattered Clouds,0,2013-11-08 08:00:00
3:00 AM,65,64,94,29.85,12,East,3.5,,,,Partly Cloudy,80,2013-11-08 09:00:00
3:00 AM,64.4,64.4,100,29.97,-9999.0,East,3.5,-,N/A,,Clear,80,2013-11-08 09:00:00
4:00 AM,64.4,62.6,94,29.96,-9999.0,East,4.6,-,N/A,,Clear,100,2013-11-08 10:00:00
5:00 AM,64.4,62.6,94,29.97,-9999.0,ENE,4.6,-,N/A,,Clear,60,2013-11-08 11:00:00
6:00 AM,64,62,93,29.87,12,NNE,3.5,,,,Partly Cloudy,30,2013-11-08 12:00:00
6:00 AM,64.4,62.6,94,30.00,-9999.0,NNE,3.5,-,N/A,,Clear,30,2013-11-08 12:00:00
7:00 AM,69.8,64.4,83,30.02,-9999.0,NNE,4.6,-,N/A,,Clear,30,2013-11-08 13:00:00
8:00 AM,73.4,64.4,73,30.04,6.2,ESE,3.5,-,N/A,,Mostly Cloudy,120,2013-11-08 14:00:00
9:00 AM,80,65,52,29.85,12,West,4.6,,,,Scattered Clouds,280,2013-11-08 15:00:00
9:00 AM,78.8,66.2,65,30.01,6.2,WSW,6.9,-,N/A,,Scattered Clouds,250,2013-11-08 15:00:00
10:00 AM,78.8,66.2,65,30.01,6.2,WSW,6.9,-,N/A,,Scattered Clouds,250,2013-11-08 16:00:00
11:00 AM,80.6,66.2,61,29.99,6.2,WSW,10.4,-,N/A,,Scattered Clouds,240,2013-11-08 17:00:00
12:00 PM,80,66,53,29.77,12,WSW,16.1,,,,Overcast,250,2013-11-08 18:00:00
12:00 PM,80.6,66.2,61,29.94,6.2,WSW,16.1,-,N/A,,Mostly Cloudy,250,2013-11-08 18:00:00
1:00 PM,80.6,68.0,65,29.90,6.2,SW,13.8,-,N/A,,Scattered Clouds,230,2013-11-08 19:00:00
1:10 PM,78.8,68.0,69,29.89,6.2,SW,15.0,-,N/A,Rain,Rain Showers,230,2013-11-08 19:10:00
1:20 PM,73.4,68.0,83,29.90,1.9,SW,16.1,-,N/A,Rain,Heavy Rain Showers,230,2013-11-08 19:20:00
1:35 PM,71.6,71.6,100,-9999,5.0,West,15.0,-,N/A,Rain,Rain Showers,280,2013-11-08 19:35:00
2:00 PM,71.6,69.8,94,29.88,1.2,WSW,12.7,-,N/A,Rain,Heavy Rain Showers,250,2013-11-08 20:00:00
2:15 PM,69.8,69.8,100,29.86,5.0,West,8.1,-,N/A,Rain,Rain,280,2013-11-08 20:15:00
3:00 PM,70,69,97,29.76,6,West,2.3,,,Rain,Light Drizzle,260,2013-11-08 21:00:00
3:00 PM,69.8,-9999,N/A,29.87,6.2,West,2.3,-,N/A,,Light Drizzle,260,2013-11-08 21:00:00
3:24 PM,69.8,69.8,100,-9999,4.3,SW,3.5,-,N/A,Fog,Light Drizzle,220,2013-11-08 21:24:00
4:00 PM,69.8,69.8,100,-9999,0.6,WSW,5.8,-,N/A,Rain-Thunderstorm,Thunderstorms and Rain,240,2013-11-08 22:00:00
4:27 PM,68.0,68.0,100,-9999,3.1,SW,6.9,-,N/A,,Light Drizzle,220,2013-11-08 22:27:00
5:00 PM,68.0,68.0,100,29.89,3.7,West,5.8,-,N/A,Fog,Patches of Fog,260,2013-11-08 23:00:00
5:11 PM,68.0,68.0,100,29.90,1.9,NW,3.5,-,N/A,Rain,Heavy Rain,310,2013-11-08 23:11:00
6:00 PM,68,68,99,29.75,4,WNW,4.6,,,Rain,Light Rain,300,2013-11-09 00:00:00
6:00 PM,68.0,68.0,100,29.91,4.3,WNW,4.6,-,N/A,Fog-Rain,Light Rain,300,2013-11-09 00:00:00
7:00 PM,68.0,68.0,100,29.93,6.2,West,2.3,-,N/A,,Light Drizzle,280,2013-11-09 01:00:00
8:00 PM,68.0,68.0,100,29.95,6.2,NW,2.3,-,N/A,Fog,Mostly Cloudy,320,2013-11-09 02:00:00
9:00 PM,68,68,100,29.83,9,NNW,2.3,,,,Overcast,330,2013-11-09 03:00:00
9:00 PM,68.0,68.0,100,29.96,6.2,NNW,2.3,-,N/A,Fog,Mostly Cloudy,330,2013-11-09 03:00:00
10:00 PM,68.0,68.0,100,29.96,6.2,Calm,Calm,-,N/A,Fog,Patches of Fog,0,2013-11-09 04:00:00
11:00 PM,68.0,68.0,100,29.95,6.2,ENE,2.3,-,N/A,Fog,Mostly Cloudy,70,2013-11-09 05:00:00